Погода в Сухом Логу

Россия / Свердловская область     56°54′19″N   62°02′07″E
темп.,
°C
ветер,
м/с
пор.,
м/с
влажн.,
%
обл.,
%
осадки,
мм/ч
давл.,
гПа
погр.,
м
13 мая, чт
чт1323:00+15юз115147 0.0 102611
02:00+14зюз345563 0.0 102652
05:00+13з356485 0.0 102671
08:00+19сз354767 0.0 1026303
11:00+24сз453162 0.0 10251540
14:00+27ссз452718 0.0 10242175
17:00+27ссз35265 0.0 10242552
20:00+23сз22405 0.0 102411
14 мая, пт
пт1423:00+19зсз124817 0.0 102511
02:00+16з01545 0.0 102511
05:00+15зюз22614 0.0 102615
08:00+22зюз24435 0.0 1026274
11:00+27з45305 0.0 10252164
14:00+29з46235 0.0 10233061
17:00+30з47215 0.0 10223360
20:00+25з36340 0.0 1022121
15 мая, сб
сб1523:00+19з38430 0.0 1022124
02:00+18з38575 0.0 1022146
05:00+17з311644 0.0 1022237
08:00+22з494555 0.0 1022411
11:00+28з58296 0.0 10211676
14:00+30з6102385 0.0 10202899
17:00+29з6925100 0.0 10192658
20:00+25з5113873 0.0 1019685
16 мая, вс
вс1623:00+21зсз310524 0.1 1020266
02:00+17зсз3472100 0.3 102168
05:00+16з357195 0.3 102189
08:00+22з364967 0.0 1021296
11:00+29з46265 0.0 10201407
14:00+31з582013 0.0 10192878
17:00+31з681865 0.0 10173546
20:00+26з493021 0.0 1017309
17 мая, пн
пн1723:00+21зюз311435 0.0 1017189
02:00+18зюз39535 0.0 1017144
05:00+18зюз411562 0.0 1017218
08:00+23зюз4104411 0.0 1017339
11:00+29зюз610245 0.0 10153614
14:00+29з71021100 0.0 10143112
17:00+30з6112162 0.0 10133949
20:00+25з510355 0.0 1013918